When you browse on this site, cookies collect data to enhance your experience and personalize the content and advertising you see.
Visit our Privacy Policy to learn more. By continuing to use the site, you agree to this use of cookies and data.
  • In Sweden
  • List of Countries
  • For 7 days
  • Water Temperature
  • Satellite Maps
  • Weather Map
  • Weather Widgets
  • user-avatar
    Login

    Hourly Weather Chodeczek

    Today, 16 December, Sunday

    Time Temperature Precipitation Wind Pressure Humidity
    00:00 -3°C° 0.1 mm 4 mps 756 mmHg 87%
    01:00 -2°C° 0 mm 3 mps 756 mmHg 89%
    02:00 -3°C° 0.2 mm 4 mps 755 mmHg 89%
    03:00 -3°C° 0.2 mm 4 mps 755 mmHg 89%
    04:00 -3°C° 0.2 mm 4 mps 755 mmHg 89%
    05:00 -3°C° 0.1 mm 4 mps 754 mmHg 88%
    06:00 -3°C° 0.1 mm 4 mps 754 mmHg 88%
    07:00 -4°C° 0.1 mm 4 mps 753 mmHg 88%
    08:00 -3°C° 0.1 mm 4 mps 753 mmHg 87%
    09:00 -3°C° 0.1 mm 4 mps 753 mmHg 86%
    10:00 -3°C° 0.1 mm 4 mps 753 mmHg 85%
    11:00 -2°C° 0.1 mm 3 mps 753 mmHg 84%
    12:00 -2°C° 0.1 mm 3 mps 752 mmHg 83%
    13:00 -1°C° 0.1 mm 3 mps 752 mmHg 83%
    14:00 -2°C° 0 mm 3 mps 752 mmHg 84%
    15:00 -2°C° 0 mm 2 mps 752 mmHg 86%
    16:00 -2°C° 0 mm 2 mps 752 mmHg 87%
    17:00 -2°C° 0 mm 2 mps 752 mmHg 88%
    18:00 -2°C° 0 mm 2 mps 752 mmHg 88%
    19:00 -2°C° 0 mm 2 mps 752 mmHg 88%
    20:00 -3°C° 0 mm 2 mps 752 mmHg 89%
    21:00 -3°C° 0 mm 2 mps 752 mmHg 89%
    22:00 -4°C° 0 mm 2 mps 752 mmHg 89%
    23:00 -4°C° 0 mm 2 mps 752 mmHg 89%

    Tomorrow, 17 December, Monday

    Time Temperature Precipitation Wind Pressure Humidity
    00:00 -5°C° 0 mm 3 mps 752 mmHg 89%
    01:00 -5°C° 0 mm 3 mps 752 mmHg 89%
    02:00 -5°C° 0 mm 3 mps 752 mmHg 88%
    03:00 -5°C° 0 mm 3 mps 752 mmHg 86%
    04:00 -5°C° 0 mm 3 mps 752 mmHg 85%
    05:00 -4°C° 0 mm 2 mps 753 mmHg 86%
    06:00 -4°C° 0 mm 2 mps 753 mmHg 86%
    07:00 -4°C° 0 mm 2 mps 753 mmHg 87%
    08:00 -4°C° 0 mm 2 mps 753 mmHg 85%
    09:00 -3°C° 0 mm 2 mps 753 mmHg 84%
    10:00 -3°C° 0 mm 2 mps 754 mmHg 83%
    11:00 -2°C° 0 mm 2 mps 754 mmHg 83%
    12:00 -2°C° 0 mm 2 mps 754 mmHg 82%
    13:00 -1°C° 0 mm 2 mps 754 mmHg 82%
    14:00 -1°C° 0 mm 2 mps 755 mmHg 85%
    15:00 -2°C° 0 mm 2 mps 755 mmHg 88%
    16:00 0°C° 0 mm 1 mps 755 mmHg 90%
    17:00 -2°C° 0 mm 2 mps 756 mmHg 91%
    18:00 -2°C° 0 mm 2 mps 756 mmHg 92%
    19:00 -2°C° 0 mm 2 mps 756 mmHg 94%
    20:00 -2°C° 0 mm 2 mps 757 mmHg 94%
    21:00 -2°C° 0 mm 2 mps 757 mmHg 94%
    22:00 -3°C° 0 mm 2 mps 757 mmHg 94%
    23:00 -3°C° 0 mm 2 mps 758 mmHg 94%

    Day after tomorrow, 18 December, Tuesday

    Time Temperature Precipitation Wind Pressure Humidity
    00:00 -1°C° 0 mm 1 mps 758 mmHg 95%
    01:00 -1°C° 0 mm 1 mps 758 mmHg 95%
    02:00 -1°C° 0 mm 1 mps 758 mmHg 95%
    03:00 -1°C° 0 mm 1 mps 758 mmHg 94%
    04:00 -2°C° 0 mm 0 mps 758 mmHg 94%
    05:00 -1°C° 0 mm 1 mps 758 mmHg 94%
    06:00 -1°C° 0 mm 1 mps 758 mmHg 94%
    07:00 -1°C° 0 mm 1 mps 759 mmHg 94%
    08:00 0°C° 0 mm 1 mps 759 mmHg 93%
    09:00 0°C° 0 mm 1 mps 759 mmHg 92%
    10:00 0°C° 0 mm 1 mps 759 mmHg 91%
    11:00 +1°C° 0 mm 1 mps 759 mmHg 91%
    12:00 +1°C° 0 mm 1 mps 759 mmHg 91%
    13:00 +1°C° 0 mm 1 mps 759 mmHg 91%
    14:00 +1°C° 0 mm 1 mps 759 mmHg 92%
    15:00 +1°C° 0 mm 1 mps 759 mmHg 92%
    16:00 -2°C° 0 mm 2 mps 759 mmHg 93%
    17:00 -2°C° 0 mm 2 mps 759 mmHg 93%
    18:00 -2°C° 0 mm 2 mps 759 mmHg 94%
    19:00 -2°C° 0 mm 2 mps 759 mmHg 94%
    20:00 -3°C° 0 mm 2 mps 759 mmHg 94%
    21:00 -3°C° 0 mm 2 mps 759 mmHg 94%
    22:00 -3°C° 0 mm 2 mps 759 mmHg 94%
    23:00 -3°C° 0 mm 2 mps 759 mmHg 94%

    19 December, Wednesday

    Time Temperature Precipitation Wind Pressure Humidity
    00:00 -3°C° 0 mm 2 mps 759 mmHg 95%
    01:00 -3°C° 0 mm 2 mps 759 mmHg 95%
    02:00 -3°C° 0 mm 2 mps 759 mmHg 95%
    03:00 -4°C° 0 mm 3 mps 759 mmHg 95%
    04:00 -4°C° 0 mm 3 mps 758 mmHg 95%
    05:00 -4°C° 0 mm 3 mps 758 mmHg 95%
    06:00 -4°C° 0 mm 3 mps 758 mmHg 94%
    07:00 -4°C° 0 mm 3 mps 758 mmHg 94%
    08:00 -4°C° 0 mm 3 mps 758 mmHg 92%
    09:00 -3°C° 0 mm 4 mps 758 mmHg 91%
    10:00 -3°C° 0 mm 4 mps 758 mmHg 89%
    11:00 -3°C° 0 mm 4 mps 758 mmHg 88%
    12:00 -2°C° 0 mm 4 mps 758 mmHg 86%
    13:00 -2°C° 0 mm 4 mps 758 mmHg 84%
    14:00 -2°C° 0 mm 4 mps 758 mmHg 86%
    15:00 -3°C° 0 mm 4 mps 757 mmHg 87%
    16:00 -4°C° 0 mm 4 mps 757 mmHg 88%
    17:00 -5°C° 0 mm 5 mps 757 mmHg 88%
    18:00 -5°C° 0 mm 5 mps 757 mmHg 88%
    19:00 -5°C° 0 mm 5 mps 757 mmHg 87%
    20:00 -5°C° 0 mm 5 mps 757 mmHg 87%
    21:00 -5°C° 0 mm 5 mps 757 mmHg 86%
    22:00 -6°C° 0 mm 5 mps 757 mmHg 86%
    23:00 -6°C° 0 mm 5 mps 757 mmHg 85%

    20 December, Thursday

    Time Temperature Precipitation Wind Pressure Humidity
    00:00 -6°C° 0 mm 5 mps 756 mmHg 85%
    01:00 -6°C° 0 mm 5 mps 756 mmHg 85%
    02:00 -6°C° 0 mm 5 mps 756 mmHg 85%
    03:00 -6°C° 0 mm 5 mps 756 mmHg 85%
    04:00 -6°C° 0 mm 5 mps 756 mmHg 85%
    05:00 -6°C° 0 mm 5 mps 756 mmHg 85%
    06:00 -6°C° 0 mm 5 mps 756 mmHg 84%
    07:00 -6°C° 0 mm 5 mps 755 mmHg 84%
    08:00 -6°C° 0 mm 5 mps 756 mmHg 83%
    09:00 -6°C° 0 mm 5 mps 756 mmHg 82%
    10:00 -5°C° 0 mm 5 mps 756 mmHg 81%
    11:00 -5°C° 0 mm 5 mps 756 mmHg 80%
    12:00 -4°C° 0 mm 4 mps 755 mmHg 80%
    13:00 -3°C° 0 mm 4 mps 755 mmHg 79%
    14:00 -4°C° 0 mm 4 mps 755 mmHg 80%
    15:00 -4°C° 0 mm 4 mps 755 mmHg 81%
    16:00 -4°C° 0 mm 4 mps 755 mmHg 82%
    17:00 -4°C° 0 mm 3 mps 755 mmHg 84%
    18:00 -4°C° 0 mm 3 mps 755 mmHg 85%
    19:00 -4°C° 0 mm 3 mps 755 mmHg 87%
    20:00 -4°C° 0 mm 3 mps 755 mmHg 88%
    21:00 -4°C° 0 mm 3 mps 755 mmHg 89%
    22:00 -4°C° 0 mm 3 mps 755 mmHg 90%
    23:00 -4°C° 0 mm 3 mps 755 mmHg 90%

    21 December, Friday

    Time Temperature Precipitation Wind Pressure Humidity
    00:00 -4°C° 0 mm 3 mps 755 mmHg 90%
    01:00 -4°C° 0 mm 3 mps 755 mmHg 91%
    02:00 -3°C° 0.1 mm 2 mps 755 mmHg 92%
    03:00 -2°C° 0.1 mm 2 mps 754 mmHg 93%
    04:00 -2°C° 0.1 mm 2 mps 754 mmHg 94%
    05:00 -2°C° 0.2 mm 2 mps 754 mmHg 95%
    06:00 -2°C° 0.2 mm 2 mps 754 mmHg 96%
    07:00 -1°C° 0.2 mm 2 mps 754 mmHg 96%
    08:00 -1°C° 0.2 mm 2 mps 754 mmHg 96%
    09:00 -1°C° 0.2 mm 2 mps 754 mmHg 96%
    10:00 -1°C° 0.2 mm 2 mps 755 mmHg 96%
    11:00 +1°C° 0.1 mm 2 mps 754 mmHg 97%
    12:00 +1°C° 0.1 mm 2 mps 754 mmHg 97%
    13:00 +1°C° 0.1 mm 2 mps 754 mmHg 97%
    14:00 -1°C° 0 mm 2 mps 754 mmHg 96%
    15:00 -1°C° 0 mm 2 mps 753 mmHg 96%
    16:00 -1°C° 0 mm 2 mps 753 mmHg 95%
    17:00 -2°C° 0 mm 2 mps 753 mmHg 95%
    18:00 -2°C° 0 mm 2 mps 753 mmHg 94%
    19:00 -2°C° 0 mm 2 mps 753 mmHg 94%
    20:00 -2°C° 0 mm 2 mps 753 mmHg 94%
    21:00 -2°C° 0 mm 2 mps 752 mmHg 94%
    22:00 -2°C° 0 mm 3 mps 752 mmHg 94%
    23:00 -2°C° 0 mm 3 mps 752 mmHg 94%
    Show more